FFL9133 MYNN-MYGF

Flight info

Callsign FFL9133
Flight time 0h 33m
Altitude 18000
Route PEACH BR65V ZFP
Aircraft B737/M-SDE2E3FGHIRWXY/LB1

Departure

Time 2026-04-24 16:20
Airport Lynden Pindling International Airport (MYNN)

Arrival

Time 2026-04-24 16:53
Airport Grand Bahama International Airport (MYGF)
Time Latitude Longitude Altitude Speed Heading
2026-04-24 16:06 25.04621 -77.46478 16 ft 0 kts 128°
2026-04-24 16:12 25.04618 -77.46475 16 ft 5 kts 128°
2026-04-24 16:13 25.04572 -77.46494 16 ft 9 kts 245°
2026-04-24 16:13 25.04584 -77.46651 17 ft 16 kts 315°
2026-04-24 16:14 25.04770 -77.46849 18 ft 21 kts 315°
2026-04-24 16:14 25.04877 -77.46966 18 ft 23 kts 314°
2026-04-24 16:14 25.05105 -77.47226 17 ft 23 kts 313°
2026-04-24 16:15 25.05175 -77.47310 18 ft 22 kts 312°
2026-04-24 16:15 25.05216 -77.47434 18 ft 0 kts 253°
2026-04-24 16:19 25.05186 -77.47528 20 ft 14 kts 236°
2026-04-24 16:19 25.05134 -77.47516 21 ft 15 kts 135°
2026-04-24 16:20 25.04051 -77.46327 428 ft 171 kts 136°
2026-04-24 16:20 25.02218 -77.44289 2718 ft 194 kts 122°
2026-04-24 16:20 25.01676 -77.42819 3185 ft 221 kts 104°
2026-04-24 16:21 25.01308 -77.39513 3182 ft 217 kts 73°
2026-04-24 16:21 25.02116 -77.38145 3201 ft 220 kts 40°
2026-04-24 16:21 25.03581 -77.37448 3219 ft 249 kts
2026-04-24 16:22 25.05352 -77.37641 3215 ft 262 kts 345°
2026-04-24 16:22 25.08906 -77.38444 3236 ft 264 kts 14°
2026-04-24 16:22 25.10516 -77.37549 4072 ft 262 kts 45°
2026-04-24 16:23 25.11705 -77.36018 5337 ft 265 kts 45°
2026-04-24 16:23 25.13109 -77.34671 6533 ft 270 kts 40°
2026-04-24 16:23 25.14565 -77.33325 7588 ft 278 kts 33°
2026-04-24 16:24 25.18250 -77.33179 9754 ft 278 kts 326°
2026-04-24 16:24 25.19606 -77.34667 10844 ft 276 kts 303°
2026-04-24 16:24 25.20657 -77.36451 11895 ft 278 kts 299°
2026-04-24 16:24 25.21655 -77.38298 12960 ft 281 kts 298°
2026-04-24 16:25 25.22650 -77.40165 14028 ft 283 kts 298°
2026-04-24 16:25 25.23645 -77.42022 14975 ft 287 kts 298°
2026-04-24 16:25 25.24676 -77.43931 15910 ft 291 kts 298°
2026-04-24 16:26 25.26796 -77.47819 17424 ft 299 kts 298°
2026-04-24 16:26 25.27921 -77.49877 17498 ft 326 kts 298°
2026-04-24 16:26 25.30452 -77.54491 17501 ft 368 kts 298°
2026-04-24 16:27 25.31791 -77.56919 17497 ft 372 kts 299°
2026-04-24 16:27 25.33137 -77.59355 17680 ft 370 kts 299°
2026-04-24 16:27 25.34468 -77.61770 17872 ft 373 kts 299°
2026-04-24 16:27 25.35834 -77.64251 17965 ft 373 kts 298°
2026-04-24 16:28 25.37161 -77.66662 17978 ft 373 kts 298°
2026-04-24 16:28 25.38515 -77.69126 17987 ft 373 kts 298°
2026-04-24 16:28 25.41212 -77.74037 17985 ft 373 kts 298°
2026-04-24 16:29 25.42682 -77.76399 17981 ft 376 kts 306°
2026-04-24 16:29 25.44487 -77.78518 17993 ft 379 kts 315°
2026-04-24 16:29 25.48734 -77.82021 17981 ft 381 kts 321°
2026-04-24 16:30 25.52963 -77.85384 17249 ft 367 kts 320°
2026-04-24 16:30 25.55001 -77.87033 16858 ft 355 kts 320°
2026-04-24 16:30 25.56962 -77.88628 16476 ft 345 kts 320°
2026-04-24 16:31 25.58875 -77.90185 16101 ft 336 kts 320°
2026-04-24 16:31 25.60730 -77.91696 15735 ft 328 kts 320°
2026-04-24 16:31 25.62557 -77.93184 15365 ft 321 kts 320°
2026-04-24 16:31 25.64339 -77.94637 15006 ft 315 kts 320°
2026-04-24 16:32 25.66091 -77.96067 14648 ft 309 kts 320°
2026-04-24 16:32 25.67810 -77.97471 14295 ft 304 kts 320°
2026-04-24 16:32 25.69494 -77.98846 13952 ft 300 kts 320°
2026-04-24 16:32 25.71162 -78.00209 13574 ft 296 kts 320°
2026-04-24 16:33 25.72816 -78.01561 13183 ft 293 kts 321°
2026-04-24 16:33 25.74430 -78.02881 12807 ft 291 kts 321°
2026-04-24 16:33 25.76061 -78.04216 12433 ft 290 kts 321°
2026-04-24 16:33 25.77688 -78.05547 12059 ft 289 kts 321°
2026-04-24 16:34 25.79307 -78.06872 11689 ft 289 kts 321°
2026-04-24 16:34 25.80926 -78.08198 11324 ft 288 kts 322°
2026-04-24 16:34 25.82517 -78.09501 10971 ft 287 kts 322°
2026-04-24 16:34 25.84122 -78.10815 10619 ft 287 kts 322°
2026-04-24 16:35 25.85731 -78.12134 10264 ft 286 kts 322°
2026-04-24 16:35 25.87339 -78.13452 10051 ft 287 kts 322°
2026-04-24 16:35 25.88958 -78.14781 9878 ft 292 kts 322°
2026-04-24 16:35 25.90582 -78.16112 9619 ft 288 kts 322°
2026-04-24 16:36 25.92188 -78.17429 9367 ft 283 kts 323°
2026-04-24 16:36 25.93759 -78.18718 9120 ft 279 kts 323°
2026-04-24 16:36 25.95304 -78.19987 8886 ft 279 kts 323°
2026-04-24 16:36 25.96868 -78.21271 8648 ft 279 kts 323°
2026-04-24 16:37 25.98430 -78.22554 8404 ft 279 kts 323°
2026-04-24 16:37 25.99993 -78.23839 8183 ft 279 kts 323°
2026-04-24 16:37 26.01562 -78.25129 7938 ft 279 kts 323°
2026-04-24 16:37 26.03105 -78.26398 7706 ft 278 kts 324°
2026-04-24 16:38 26.04661 -78.27678 7477 ft 278 kts 324°
2026-04-24 16:38 26.06212 -78.28955 7247 ft 277 kts 324°
2026-04-24 16:38 26.07749 -78.30220 7066 ft 273 kts 324°
2026-04-24 16:38 26.09276 -78.31477 7014 ft 273 kts 324°
2026-04-24 16:39 26.10805 -78.32736 7005 ft 273 kts 324°
2026-04-24 16:39 26.12328 -78.33991 7002 ft 272 kts 324°
2026-04-24 16:39 26.13846 -78.35243 6996 ft 272 kts 324°
2026-04-24 16:39 26.15371 -78.36501 7002 ft 272 kts 324°
2026-04-24 16:40 26.16885 -78.37752 7006 ft 272 kts 324°
2026-04-24 16:40 26.18407 -78.39010 7009 ft 273 kts 324°
2026-04-24 16:40 26.19912 -78.40254 7004 ft 273 kts 324°
2026-04-24 16:40 26.21349 -78.41596 6975 ft 265 kts 314°
2026-04-24 16:41 26.22313 -78.43274 6852 ft 256 kts 289°
2026-04-24 16:41 26.22684 -78.45202 6606 ft 254 kts 281°
2026-04-24 16:41 26.23008 -78.47146 6345 ft 254 kts 282°
2026-04-24 16:41 26.23330 -78.49077 6060 ft 253 kts 282°
2026-04-24 16:42 26.23650 -78.51011 5789 ft 254 kts 282°
2026-04-24 16:42 26.23968 -78.52949 5508 ft 254 kts 282°
2026-04-24 16:42 26.24283 -78.54887 5226 ft 254 kts 282°
2026-04-24 16:42 26.24596 -78.56827 4959 ft 254 kts 282°
2026-04-24 16:43 26.24905 -78.58746 4711 ft 256 kts 282°
2026-04-24 16:43 26.25220 -78.60707 4434 ft 258 kts 282°
2026-04-24 16:43 26.25537 -78.62678 4150 ft 259 kts 282°
2026-04-24 16:43 26.25853 -78.64649 3870 ft 258 kts 282°
2026-04-24 16:44 26.26354 -78.66548 3584 ft 255 kts 298°
2026-04-24 16:44 26.27186 -78.68284 3367 ft 255 kts 301°
2026-04-24 16:44 26.28058 -78.70020 3110 ft 259 kts 302°
2026-04-24 16:44 26.28931 -78.71754 3014 ft 253 kts 302°
2026-04-24 16:45 26.29803 -78.73432 2987 ft 247 kts 305°
2026-04-24 16:45 26.30751 -78.75014 2995 ft 245 kts 306°
2026-04-24 16:45 26.31726 -78.76597 3014 ft 248 kts 307°
2026-04-24 16:45 26.32753 -78.78153 3019 ft 251 kts 316°
2026-04-24 16:46 26.34035 -78.79434 3009 ft 250 kts 322°
2026-04-24 16:46 26.35310 -78.80667 2993 ft 247 kts 322°
2026-04-24 16:46 26.36594 -78.81911 3005 ft 244 kts 322°
2026-04-24 16:46 26.37878 -78.83148 3009 ft 242 kts 321°
2026-04-24 16:47 26.39116 -78.84344 3003 ft 227 kts 322°
2026-04-24 16:47 26.40278 -78.85477 2992 ft 220 kts 321°
2026-04-24 16:47 26.41449 -78.86607 2828 ft 224 kts 321°
2026-04-24 16:47 26.42605 -78.87707 2632 ft 212 kts 324°
2026-04-24 16:48 26.43803 -78.88580 2432 ft 199 kts 332°
2026-04-24 16:48 26.44970 -78.89316 2247 ft 185 kts 346°
2026-04-24 16:48 26.46136 -78.89289 2202 ft 162 kts 31°
2026-04-24 16:48 26.47007 -78.88535 2207 ft 157 kts 57°
2026-04-24 16:49 26.47523 -78.87486 2044 ft 155 kts 69°
2026-04-24 16:49 26.47907 -78.86396 1966 ft 149 kts 72°
2026-04-24 16:49 26.48296 -78.85267 1757 ft 163 kts 70°
2026-04-24 16:49 26.48765 -78.84094 1670 ft 168 kts 67°
2026-04-24 16:50 26.49104 -78.83299 1585 ft 172 kts 66°
2026-04-24 16:50 26.49832 -78.81700 1486 ft 172 kts 63°
2026-04-24 16:50 26.50402 -78.80538 1441 ft 172 kts 63°
2026-04-24 16:50 26.50987 -78.79355 1314 ft 177 kts 63°
2026-04-24 16:51 26.51566 -78.78185 1113 ft 162 kts 63°
2026-04-24 16:51 26.52063 -78.77176 993 ft 139 kts 63°
2026-04-24 16:51 26.52527 -78.76287 857 ft 129 kts 63°
2026-04-24 16:51 26.52964 -78.75405 790 ft 132 kts 64°
2026-04-24 16:52 26.53410 -78.74487 741 ft 135 kts 64°
2026-04-24 16:52 26.53877 -78.73559 631 ft 140 kts 63°
2026-04-24 16:52 26.54354 -78.72615 447 ft 137 kts 65°
2026-04-24 16:52 26.54800 -78.71699 212 ft 132 kts 64°
2026-04-24 16:53 26.55241 -78.70823 34 ft 123 kts 59°
2026-04-24 16:53 26.55626 -78.70068 26 ft 114 kts 58°
2026-04-24 16:53 26.55952 -78.69380 24 ft 69 kts 60°
2026-04-24 16:53 26.56126 -78.69051 23 ft 43 kts 59°
2026-04-24 16:54 26.56214 -78.68835 21 ft 15 kts 106°
2026-04-24 16:54 26.56128 -78.68784 22 ft 17 kts 194°
2026-04-24 16:54 26.56059 -78.68896 25 ft 20 kts 243°
2026-04-24 16:54 26.55983 -78.69053 23 ft 26 kts 240°
2026-04-24 16:55 26.55882 -78.69242 24 ft 31 kts 240°
2026-04-24 16:55 26.55766 -78.69463 25 ft 35 kts 231°
2026-04-24 16:55 26.55576 -78.69646 24 ft 36 kts 221°
2026-04-24 16:55 26.55391 -78.69827 23 ft 34 kts 221°
2026-04-24 16:56 26.55224 -78.69986 24 ft 30 kts 220°
2026-04-24 16:56 26.55077 -78.70130 24 ft 27 kts 224°
2026-04-24 16:56 26.54965 -78.70238 25 ft 14 kts 215°
2026-04-24 16:56 26.54928 -78.70238 23 ft 1 kts 141°
2026-04-24 16:57 26.54905 -78.70199 25 ft 10 kts 132°
2026-04-24 16:57 26.54833 -78.70186 23 ft 11 kts 215°
2026-04-24 16:57 26.54835 -78.70214 23 ft 4 kts 336°
2026-04-24 16:57 26.54841 -78.70213 26 ft 0 kts